Location: Vlissingen
(51.4500°N, 3.5830°E)
Time: 14:01:41
(UTC+01:00)

Daily predictions for brighter satellites

Satellite Brightness Start Highest point End
(mag) Time Altitude Azimuth Time Altitude Azimuth Time Altitude Azimuth
ATLAS 3B R/B 3.4 17:33:36 10° WSW 17:40:53 52° NNW 17:47:51 10° NE
Cosmos 1076 Rocket 4.0 17:39:59 10° SSE 17:43:57 40° E 17:47:57 10° NNE
SMAP 3.1 17:41:07 10° SSE 17:45:42 61° ENE 17:50:20 10° N
USA 215 3.3 17:40:34 10° ESE 17:47:08 87° NNE 17:53:45 10° WNW
COSMOS 2428 3.8 17:44:52 10° SSE 17:49:30 26° ESE 17:54:08 10° NE
Cosmos 2221 2.7 17:45:37 10° NNW 17:49:55 80° W 17:54:10 10° S
NOSS 3-2 (A) 3.6 17:45:46 10° SW 17:51:57 86° SE 17:58:51 10° NE
Cosmos 389 Rocket 2.6 17:49:53 10° N 17:53:29 53° ENE 17:56:59 10° SSE
NOSS 3-2 (C) 3.6 17:48:57 10° SW 17:55:06 76° SE 18:01:56 10° NE
Cosmos 2369 Rocket 4.2 17:53:28 10° N 17:55:13 11° NNE 17:56:59 10° NNE
MOS 1 4.3 17:50:47 10° SSE 17:56:25 77° ENE 18:02:07 10° NNW
Cosmos 2237 Rocket 4.0 17:56:27 10° ESE 17:57:17 10° E 17:58:07 10° E
Cosmos 1908 3.4 17:54:15 10° N 17:58:02 49° ENE 18:01:49 10° SSE
COSMOS 2441 4.5 17:56:01 10° SSE 18:00:46 56° ENE 18:05:32 10° N
SJ-12 4.0 17:57:17 10° SSE 18:01:27 86° W 18:05:37 10° NNW
Meteor 2-2 Rocket 4.4 17:57:48 10° N 18:03:18 49° ENE 18:08:44 10° SE
Resurs 01 Rocket 3.4 18:02:04 10° E 18:04:10 13° NE 18:06:16 10° NNE
Cosmos 2150 Rocket 4.3 17:59:58 10° NNW 18:05:14 73° WSW 18:10:23 10° SSE
Thor Agena Rocket 3.9 18:00:33 10° NNE 18:05:38 46° E 18:10:39 10° S
Cosmos 1898 Rocket 4.3 18:02:55 10° NNW 18:08:11 59° WSW 18:13:25 10° S
Cosmos 1766 Rocket 3.7 18:04:48 10° S 18:09:10 56° E 18:13:32 10° NNE
EO 1 Del DPAF 4.3 18:05:53 10° N 18:09:36 46° WNW 18:13:18 10° SW
SPOT 3 Rocket 3.6 18:04:33 10° SSE 18:09:43 90° NE 18:14:56 10° NNW
Cosmos 1484 Rocket 3.0 18:08:14 10° SE 18:12:02 50° ENE 18:15:55 10° N
COSMO-SKYMED 1 3.6 18:08:57 10° NE 18:12:38 26° E 18:16:18 10° SSE
Cosmos 2228 Rocket 3.1 18:08:32 10° N 18:12:54 57° ENE 18:17:15 10° SSE
Tsikada Rocket 4.1 18:07:46 10° S 18:14:01 61° E 18:20:21 10° NNE
Meteor 1-24 Rocket 4.3 18:08:20 10° SSW 18:14:17 69° WNW 18:20:21 10° N
Cosmos 1125 Rocket 3.8 18:10:44 10° NNW 18:15:45 45° ENE 18:20:44 10° SE
Cosmos 2285 Rocket 4.5 18:09:53 10° SW 18:16:09 63° WNW 18:22:29 10° NNE
Cosmos 1674 3.1 18:13:35 10° SSE 18:17:12 42° E 18:20:52 10° NNE
Cosmos 2322 3.7 18:11:51 10° SSW 18:17:30 71° ESE 18:23:12 10° NNE
Cosmos 1814 Rocket 4.2 18:14:40 10° S 18:19:52 56° ESE 18:25:08 10° NNE
YAOGAN 1 2.8 18:15:48 10° S 18:20:07 76° WSW 18:24:29 10° NNW
Lacrosse 5 rocket 1.3 18:17:18 10° WNW 18:20:57 54° NNE 18:24:12 14° E
CZ-4 R/B 2.3 18:17:12 10° S 18:20:59 51° W 18:24:49 10° NNW
Cosmos 990 Rocket 4.2 18:15:45 10° NNW 18:21:01 76° WSW 18:26:16 10° SSE
Lacrosse 4 Rocket 3.3 18:20:47 10° N 18:22:47 13° NNE 18:23:45 12° NE
IDEFIX/ARIANE 42P 3.2 18:18:01 10° S 18:23:10 61° W 18:28:23 10° NNW
SL-16 R/B 3.1 18:19:52 10° SW 18:25:20 48° NW 18:30:52 10° NNE
In-Cosmos 22 4.2 18:20:43 10° SSW 18:26:05 85° WNW 18:31:38 10° NNE
Cosmos 1300 3.3 18:22:37 10° N 18:26:10 34° ENE 18:29:40 10° SE
Cosmos 1844 Rocket 2.8 18:20:30 10° NNW 18:26:13 85° WSW 18:31:53 10° SSE
CENTAUR R/B 2.9 18:24:32 10° SSW 18:30:26 48° ESE 18:36:00 15° NE
Cosmos 1408 Rocket 3.6 18:26:41 10° S 18:31:09 89° WNW 18:35:37 10° N
USA 116 3.2 18:27:59 10° NNE 18:31:27 86° WNW 18:34:37 10° SSW
CZ-4C R/B 3.7 18:26:13 10° WNW 18:31:28 30° N 18:36:33 13° NE
BREEZE M DEB (TANK) 2.8 18:28:28 10° W 18:32:11 41° SSW 18:34:06 12° SE
Meteor 1-21 Rocket 4.3 18:28:50 10° S 18:34:45 77° E 18:40:37 10° NNE
Spot 2 Rocket 4.4 18:30:50 10° ESE 18:34:57 26° ENE 18:39:04 10° N
Cosmos 1726 2.4 18:32:08 10° N 18:35:45 43° ENE 18:39:22 10° SSE
Cosmos 332 Rocket 4.3 18:32:24 10° S 18:36:50 37° ESE 18:40:08 17° NE
Cosmos 1634 Rocket 3.9 18:31:40 10° N 18:37:54 69° ENE 18:44:03 10° SSE
Cosmos 841 Rocket 3.8 18:35:54 10° S 18:40:57 49° ESE 18:45:20 14° NE
Cosmos 2360 Rocket 2.4 18:37:48 10° SW 18:43:25 74° WNW 18:49:05 10° NNE
Cosmos 1980 Rocket 4.1 18:40:46 10° W 18:44:56 21° NW 18:49:07 10° NNE
Cosmos 1328 4.2 18:43:20 10° SSE 18:47:01 38° E 18:49:22 19° NE
Cosmos 468 Rocket 4.1 18:42:15 10° SSW 18:47:26 75° WNW 18:52:37 10° NNE
Meteor 1-28 Rocket 3.6 18:49:53 24° NE 18:51:41 40° E 18:55:12 10° S
Cosmos 1743 Rocket 3.5 18:47:45 10° S 18:52:13 76° E 18:56:43 10° NNE
Cosmos 2333 Rocket 2.8 18:47:56 10° S 18:52:58 35° ESE 18:55:28 24° ENE
Cosmos 1328 Rocket 4.1 18:49:28 10° NNW 18:53:52 62° W 18:58:14 10° S
Cosmos 2058 3.7 18:51:27 10° SSE 18:55:01 29° E 18:55:01 29° E
Meteor 1-27 4.3 18:51:20 10° N 18:57:04 60° ENE 19:02:50 10° SSE
SJ-6B 3.0 18:54:19 10° SSE 18:58:16 54° ENE 19:02:20 10° N
Cosmos 1515 Rocket 3.8 18:54:49 10° NNW 18:59:18 72° W 19:03:44 10° S
ALOS 2.7 18:56:10 10° SE 19:00:27 37° ENE 19:04:45 10° N
SKYMED 2 3.5 18:56:38 10° NNE 19:01:01 73° ESE 19:05:20 10° S
FENGYUN 3A 4.0 18:56:25 10° SE 19:01:25 41° ENE 19:06:26 10° N
ATLAS 5 CENTAUR R/B 3.6 19:01:38 10° NW 19:05:59 24° N 19:08:13 19° NE
Timation 1 Rocket 4.4 19:00:03 10° NNW 19:06:02 60° NE 19:11:12 14° SE
Cosmos 371 Rocket 3.4 19:03:08 10° S 19:07:47 51° ESE 19:09:48 31° NE
Orbus 7S? 3.8 19:05:15 10° WNW 19:08:36 63° NNE 19:11:23 29° E
Cosmos 2278 Rocket 2.2 19:03:37 10° NNW 19:09:21 86° WSW 19:15:02 10° SSE
Cosmos 2322 Rocket 3.9 19:06:04 10° W 19:10:52 27° NW 19:15:42 10° NNE
Cosmos 2219 Rocket 2.2 19:05:52 10° S 19:11:22 58° ESE 19:14:21 27° NE
Cosmos 2151 2.9 19:09:46 10° S 19:13:54 59° E 19:15:46 30° NNE
Meteor 2-10 3.8 19:08:55 10° N 19:14:00 76° ENE 19:19:08 10° SSE
Cosmos 1151 Rocket 3.2 19:10:00 10° NNW 19:14:16 72° W 19:18:31 10° S
Lacrosse 5 2.2 19:11:45 10° W 19:16:48 59° NNW 19:18:54 34° NE
METEOR-M 4.1 19:11:34 10° SSE 19:16:56 89° ENE 19:22:21 10° NNW
NOSS 0 Rocket 4.1 19:11:27 10° S 19:17:22 49° ESE 19:19:57 31° ENE
Molniya-1 4.5 19:14:24 10° SSW 19:17:37 63° SE 19:19:03 41° ENE
Cosmos 1500 Rocket 3.5 19:15:20 10° SSW 19:19:40 81° WNW 19:24:00 10° N
Cosmos 1943 Rocket 4.0 19:23:01 10° N 19:25:40 15° NNE 19:25:40 15° NNE
Cosmos 44 Rocket 3.6 19:21:11 10° SSW 19:26:06 50° ESE 19:26:50 46° E
Cosmos 1340 Rocket 4.4 19:25:21 10° S 19:26:53 21° SSE 19:26:53 21° SSE
Cosmos 1763 Rocket 3.8 19:24:50 10° SW 19:30:01 64° WNW 19:33:49 18° NNE
USA 215 4.5 19:24:31 10° SSE 19:30:36 40° SW 19:36:43 10° WNW
Cosmos 2279 Rocket 4.0 19:25:30 10° N 19:31:44 83° W 19:37:58 10° S
Cosmos 1900 4.2 19:27:44 10° NW 19:32:41 68° NE 19:33:43 53° ESE
ATLAS 3B R/B 3.9 19:26:48 10° WNW 19:33:11 31° N 19:36:18 22° NNE
COSMOS 2428 3.0 19:27:39 10° SW 19:33:20 66° WNW 19:37:11 21° NNE
FREGAT/IRIS 4.4 19:35:16 25° NNW 19:35:16 25° NNW 19:36:44 10° NNW
Cosmos 372 Rocket 4.2 19:28:43 10° NNW 19:33:48 68° WSW 19:38:51 10° SSE
Resurs 01 Rocket 1.5 19:38:30 43° SSE 19:39:55 77° ENE 19:44:24 10° NNW
Cosmos 2237 Rocket 2.2 19:34:37 10° SSW 19:40:08 59° ESE 19:41:03 52° ENE
SL-14 R/B 3.4 19:37:10 10° SSW 19:41:05 74° WNW 19:41:54 53° N
Cosmos 2369 Rocket 3.5 19:36:51 10° NNW 19:40:28 23° NNE 19:40:28 23° NNE
SL-16 R/B 3.8 19:39:06 10° SSE 19:41:06 20° SSE 19:41:06 20° SSE
Cosmos 2297 3.6 19:41:07 10° NNW 19:46:52 89° WSW 19:49:48 30° SSE
COSMO-SKYMED 1 3.8 19:44:51 10° N 19:48:57 41° WNW 19:53:00 10° SW
Cosmos 783 Rocket 4.4 19:45:29 10° S 19:50:37 64° ESE 19:50:37 64° ESE
Cosmos 540 Rocket 3.3 19:48:55 10° SSW 19:54:06 84° ESE 19:54:45 69° NE
Cosmos 1707 Rocket 3.7 19:50:13 10° NNW 19:53:53 62° NNW 19:53:53 62° NNW
Resurs 1-3 4.0 19:56:15 54° NNW 19:56:15 54° NNW 19:59:41 10° NNW
Meteor 1-11 4.3 19:52:36 10° SSW 19:58:17 79° WNW 20:03:30 13° N
Nadezhda 4 Rocket 3.9 19:52:15 10° S 19:58:25 63° E 19:59:26 55° NE
Lacrosse 5 rocket 2.3 19:56:33 10° WNW 19:59:57 39° SW 19:59:57 39° SW
BREEZE-M DEB (TANK) 4.2 19:41:59 10° W 20:02:10 79° S 20:03:30 57° ESE
Lacrosse 4 Rocket 3.3 19:58:34 10° NNW 20:00:06 21° NNW 20:00:06 21° NNW
DNEPR-1 R/B 4.1 19:59:28 10° SW 20:06:05 85° SE 20:06:33 76° ENE
SL-16 R/B 4.5 20:07:26 10° WNW 20:10:55 16° NNW 20:13:52 12° N
Spot 2 Rocket 4.0 20:08:36 10° S 20:13:35 58° WSW 20:18:35 10° NNW
CENTAUR R/B 3.1 20:14:46 10° WSW 20:21:05 56° NNW 20:23:13 42° NNE
CZ-4C R/B 3.6 20:16:06 10° NW 20:21:44 33° NNE 20:21:44 33° NNE
Cosmos 1980 3.9 20:21:34 10° SW 20:27:13 65° WNW 20:27:30 64° NW
Cosmos 2360 Rocket 4.2 20:24:14 10° W 20:28:26 21° NW 20:30:59 16° N
Cosmos 2333 Rocket 2.8 20:31:35 10° SW 20:37:05 51° NW 20:37:31 49° NW
ALOS 3.9 20:33:45 10° SSW 20:37:57 33° W 20:42:10 10° NNW
ATLAS 5 CENTAUR R/B 3.8 20:46:54 10° NW 20:49:46 27° NNW 20:49:46 27° NNW
Cosmos 2219 Rocket 3.5 20:50:34 10° WSW 20:55:39 34° NW 20:56:07 33° NW
Lacrosse 5 3.7 20:55:32 10° WNW 20:58:06 27° NW 20:58:06 27° NW
Cosmos 1943 Rocket 4.4 21:06:04 10° NNW 21:07:12 16° NNW 21:07:12 16° NNW
Resurs 01 Rocket 4.4 21:16:03 14° WSW 21:16:58 15° W 21:19:31 10° NW
Cosmos 2237 Rocket 4.0 21:19:30 10° WSW 21:22:56 28° WNW 21:22:56 28° WNW
ATLAS 3B R/B 4.1 21:19:15 10° NW 21:23:33 30° NNW 21:23:33 30° NNW
Cosmos 2369 Rocket 4.3 21:20:34 10° NNW 21:22:16 20° NNW 21:22:16 20° NNW
